2009-12-02, 01:00:04,VALID,6.45272,VALID,90,VALID,-22.7051,VALID,0.0511948,VALID,19.1944,
2009-12-02, 07:00:04,VALID,918.519,VALID,0,VALID,95.2241,VALID,55.1173,VALID,19.2543,VALID,37,VALID,0.280078,
2009-12-02, 07:01:04,VALID,918.562,VALID,0,VALID,95.3842,VALID,54.9024,VALID,19.2723,VALID,37,VALID,0,
2009-12-02, 07:02:04,VALID,918.577,VALID,0,VALID,95.468,VALID,54.5801,VALID,19.2918,VALID,37,VALID,0,
2009-12-02, 07:03:04,VALID,918.575,VALID,0,VALID,95.4985,VALID,55.1173,VALID,19.3308,VALID,37,VALID,0,
2009-12-02, 07:04:04,VALID,918.564,VALID,0,VALID,95.6129,VALID,56.514,VALID,19.3503,VALID,37,VALID,0,
2009-12-02, 07:05:04,VALID,918.612,VALID,0,VALID,95.7577,VALID,58.9852,VALID,19.4088,VALID,37,VALID,0,
2009-12-02, 07:06:04,VALID,918.619,VALID,0,VALID,95.7654,VALID,61.8861,VALID,19.4283,VALID,37,VALID,0,
2009-12-02, 07:07:04,VALID,918.627,VALID,0,VALID,95.6281,VALID,65.1093,VALID,19.4673,VALID,37,VALID,0.191016,
2009-12-02, 07:08:04,VALID,918.656,VALID,0,VALID,95.4604,VALID,68.44,VALID,19.5063,VALID,37,VALID,0.00585938,
2009-12-02, 07:09:04,VALID,918.702,VALID,0,VALID,95.1402,VALID,71.3409,VALID,19.5258,VALID,37,VALID,0.389453,
2009-12-02, 07:10:04,VALID,918.682,VALID,0,VALID,94.8658,VALID,73.9195,VALID,19.5843,VALID,37,VALID,0.247656,
2009-12-02, 07:11:04,VALID,918.761,VALID,0,VALID,94.8505,VALID,75.9609,VALID,19.6233,VALID,37,VALID,0.637891,
2009-12-02, 07:12:04,VALID,918.75,VALID,0,VALID,94.2483,VALID,77.8948,VALID,19.6428,VALID,36,VALID,0.675,
2009-12-02, 07:13:04,VALID,918.776,VALID,0,VALID,93.7833,VALID,80.5809,VALID,19.7028,VALID,36,VALID,0.549609,
2009-12-02, 07:14:04,VALID,918.767,VALID,0,VALID,93.8138,VALID,83.5892,VALID,19.7223,VALID,36,VALID,0.516406,
2009-12-02, 07:15:04,VALID,918.801,VALID,0,VALID,93.5317,VALID,87.672,VALID,19.7403,VALID,36,VALID,0.694141,
2009-12-02, 07:16:04,VALID,918.817,VALID,0,VALID,93.3335,VALID,92.2919,VALID,19.7793,VALID,35,VALID,0.503516,
2009-12-02, 07:17:04,VALID,918.832,VALID,0,VALID,93.0285,VALID,95.5152,VALID,19.8183,VALID,35,VALID,0.273828,
2009-12-02, 07:18:04,VALID,918.85,VALID,0,VALID,92.5864,VALID,97.0194,VALID,19.8378,VALID,35,VALID,0.31875,
2009-12-02, 07:19:04,VALID,918.858,VALID,0,VALID,92.7998,VALID,98.2012,VALID,19.8768,VALID,35,VALID,0.180078,
2009-12-02, 07:20:04,VALID,918.916,VALID,0,VALID,93.2115,VALID,99.0607,VALID,19.9353,VALID,35,VALID,0.2625,
2009-12-02, 07:21:04,VALID,918.914,VALID,0,VALID,92.9142,VALID,99.7054,VALID,19.9548,VALID,35,VALID,0.476953,
2009-12-02, 07:22:04,VALID,918.959,VALID,0,VALID,92.6245,VALID,100.135,VALID,19.9743,VALID,35,VALID,0.458984,
2009-12-02, 07:23:04,VALID,918.977,VALID,0,VALID,91.6258,VALID,101.532,VALID,19.9743,VALID,34,VALID,0.690625,
2009-12-02, 07:24:04,VALID,918.98,VALID,0,VALID,92.007,VALID,102.069,VALID,19.9938,VALID,34,VALID,0.483203,
2009-12-02, 07:25:04,VALID,919.029,VALID,0,VALID,91.5039,VALID,103.036,VALID,19.9743,VALID,34,VALID,0.1625,
2009-12-02, 07:26:04,VALID,919.046,VALID,0,VALID,91.946,VALID,104.433,VALID,20.0133,VALID,34,VALID,0.20625,
2009-12-02, 07:27:04,VALID,919.054,VALID,0,VALID,91.3133,VALID,106.152,VALID,20.0133,VALID,266,VALID,0.658984,
2009-12-02, 07:28:04,VALID,919.06,VALID,0,VALID,91.4048,VALID,107.549,VALID,20.0133,VALID,266,VALID,0.163672,
2009-12-02, 07:29:04,VALID,919.037,VALID,0,VALID,91.9079,VALID,108.193,VALID,20.0718,VALID,266,VALID,0.158203,
2009-12-02, 07:30:04,VALID,919.072,VALID,0,VALID,91.7783,VALID,108.838,VALID,20.0703,VALID,266,VALID,0.203906,
2009-12-02, 07:31:04,VALID,919.12,VALID,0,VALID,91.5725,VALID,108.945,VALID,20.1303,VALID,266,VALID,0.0855469,
2009-12-02, 07:32:04,VALID,919.083,VALID,0,VALID,91.481,VALID,108.516,VALID,20.1693,VALID,266,VALID,0,
2009-12-02, 07:33:04,VALID,919.11,VALID,0,VALID,91.8012,VALID,108.73,VALID,20.2068,VALID,266,VALID,0,
2009-12-02, 07:34:04,VALID,919.117,VALID,0,VALID,91.9918,VALID,110.45,VALID,20.2653,VALID,266,VALID,0,
2009-12-02, 07:35:04,VALID,919.18,VALID,0,VALID,91.7631,VALID,112.061,VALID,20.3448,VALID,266,VALID,0.424609,
2009-12-02, 07:36:04,VALID,919.18,VALID,0,VALID,91.824,VALID,113.458,VALID,20.3838,VALID,266,VALID,0.196094,
2009-12-02, 07:37:04,VALID,919.206,VALID,0,VALID,91.9003,VALID,114.855,VALID,20.4213,VALID,266,VALID,0.701563,
2009-12-02, 07:38:04,VALID,919.233,VALID,0,VALID,91.9308,VALID,116.251,VALID,20.4798,VALID,266,VALID,0.380078,
2009-12-02, 07:39:04,VALID,919.208,VALID,0,VALID,91.5953,VALID,117.97,VALID,20.4993,VALID,266,VALID,0,
2009-12-02, 07:40:04,VALID,919.243,VALID,0,VALID,91.1379,VALID,120.227,VALID,20.5578,VALID,266,VALID,0.1,
2009-12-02, 07:41:04,VALID,919.259,VALID,0,VALID,90.6958,VALID,122.268,VALID,20.5984,VALID,266,VALID,0.188672,
2009-12-02, 07:42:04,VALID,919.259,VALID,0,VALID,90.0554,VALID,125.599,VALID,20.5984,VALID,266,VALID,0.297266,
2009-12-02, 07:43:04,VALID,919.295,VALID,0,VALID,89.7047,VALID,129.037,VALID,20.6179,VALID,266,VALID,0.294922,
2009-12-02, 07:44:04,VALID,919.281,VALID,0,VALID,90.4061,VALID,134.839,VALID,20.5968,VALID,266,VALID,0.101953,
2009-12-02, 07:45:04,VALID,919.326,VALID,0,VALID,89.4684,VALID,139.244,VALID,20.6163,VALID,266,VALID,0.289844,
2009-12-02, 07:46:04,VALID,919.353,VALID,0,VALID,89.8115,VALID,143.004,VALID,20.6179,VALID,266,VALID,0.198047,
2009-12-02, 07:47:04,VALID,919.355,VALID,0,VALID,89.6742,VALID,146.657,VALID,20.6374,VALID,266,VALID,0.484375,
2009-12-02, 07:48:04,VALID,919.388,VALID,0,VALID,90.1164,VALID,150.632,VALID,20.5968,VALID,266,VALID,0.501953,
2009-12-02, 07:49:04,VALID,919.386,VALID,0,VALID,89.8801,VALID,155.145,VALID,20.5968,VALID,266,VALID,0.532812,
2009-12-02, 07:50:04,VALID,919.394,VALID,0,VALID,90.7644,VALID,159.98,VALID,20.5968,VALID,266,VALID,0.569922,
2009-12-02, 07:51:04,VALID,919.344,VALID,0,VALID,91.3895,VALID,166.641,VALID,20.5968,VALID,266,VALID,0.391797,
2009-12-02, 07:52:04,VALID,919.379,VALID,0,VALID,91.5496,VALID,170.079,VALID,20.6569,VALID,266,VALID,0.627734,
2009-12-02, 07:53:04,VALID,919.381,VALID,0,VALID,91.1684,VALID,176.848,VALID,20.6358,VALID,266,VALID,0.641016,
2009-12-02, 07:54:04,VALID,919.358,VALID,0,VALID,91.5572,VALID,185.121,VALID,20.6748,VALID,267,VALID,1.03945,
2009-12-02, 07:55:04,VALID,919.396,VALID,0,VALID,91.542,VALID,187.807,VALID,20.7333,VALID,267,VALID,0.608203,
2009-12-02, 07:56:04,VALID,919.397,VALID,0,VALID,90.894,VALID,198.444,VALID,20.7723,VALID,267,VALID,0.71875,
2009-12-02, 07:57:04,VALID,919.435,VALID,0,VALID,90.8635,VALID,206.609,VALID,20.8309,VALID,267,VALID,0.724219,
2009-12-02, 07:58:04,VALID,919.448,VALID,0,VALID,91.1456,VALID,212.304,VALID,20.8309,VALID,268,VALID,1.1375,
2009-12-02, 07:59:04,VALID,919.449,VALID,0,VALID,90.3527,VALID,220.039,VALID,20.7918,VALID,29,VALID,1.39336,
2009-12-02, 08:00:04,VALID,919.448,VALID,0,VALID,89.842,VALID,236.371,VALID,20.7723,VALID,13,VALID,0.908594,
2009-12-02, 08:01:04,VALID,919.478,VALID,0,VALID,90.3908,VALID,238.842,VALID,20.7918,VALID,13,VALID,0.523047,
2009-12-02, 08:02:04,VALID,919.463,VALID,0,VALID,90.9473,VALID,249.693,VALID,20.8504,VALID,4,VALID,0.926172,
2009-12-02, 08:03:04,VALID,919.468,VALID,0,VALID,90.955,VALID,246.255,VALID,20.9089,VALID,36,VALID,1.41719,
2009-12-02, 08:04:04,VALID,919.42,VALID,0,VALID,91.3285,VALID,258.181,VALID,20.9479,VALID,39,VALID,1.36367,
2009-12-02, 08:05:04,VALID,919.462,VALID,0,VALID,90.0402,VALID,263.553,VALID,20.9479,VALID,51,VALID,1.15898,
2009-12-02, 08:06:04,VALID,919.437,VALID,0,VALID,89.8801,VALID,279.777,VALID,20.9089,VALID,56,VALID,1.40039,
2009-12-02, 08:07:04,VALID,919.474,VALID,0,VALID,90.2841,VALID,284.612,VALID,20.8683,VALID,68,VALID,1.33359,
2009-12-02, 08:08:04,VALID,919.472,VALID,0,VALID,91.7554,VALID,291.81,VALID,20.9089,VALID,68,VALID,1.22227,
2009-12-02, 08:09:04,VALID,919.477,VALID,0,VALID,89.8953,VALID,304.596,VALID,20.9089,VALID,74,VALID,1.44023,
2009-12-02, 08:10:04,VALID,919.495,VALID,0,VALID,91.2066,VALID,317.059,VALID,20.9284,VALID,74,VALID,0.949219,
2009-12-02, 08:11:04,VALID,919.519,VALID,0,VALID,89.5446,VALID,331.349,VALID,21.0454,VALID,356,VALID,1.14766,
2009-12-02, 08:12:04,VALID,919.511,VALID,0,VALID,89.8115,VALID,338.117,VALID,21.1819,VALID,25,VALID,1.42656,
2009-12-02, 08:13:04,VALID,919.503,VALID,0,VALID,89.4455,VALID,340.051,VALID,21.2193,VALID,50,VALID,1.73125,
2009-12-02, 08:14:04,VALID,919.499,VALID,0,VALID,87.0823,VALID,343.274,VALID,21.2405,VALID,20,VALID,1.57227,
2009-12-02, 08:15:04,VALID,919.497,VALID,0,VALID,88.7899,VALID,347.894,VALID,21.2226,VALID,38,VALID,1.75977,
2009-12-02, 08:16:04,VALID,919.53,VALID,0,VALID,88.3783,VALID,357.134,VALID,21.2584,VALID,335,VALID,1.38828,
2009-12-02, 08:17:04,VALID,919.526,VALID,0,VALID,87.1585,VALID,361.217,VALID,21.3559,VALID,18,VALID,2.0875,
2009-12-02, 08:18:04,VALID,919.522,VALID,0,VALID,86.4114,VALID,358.746,VALID,21.3754,VALID,16,VALID,2.14063,
2009-12-02, 08:19:04,VALID,919.541,VALID,0,VALID,88.1572,VALID,352.729,VALID,21.3949,VALID,18,VALID,1.40078,
2009-12-02, 08:20:04,VALID,919.577,VALID,0,VALID,89.3464,VALID,357.564,VALID,21.5526,VALID,36,VALID,1.39922,
2009-12-02, 08:21:04,VALID,919.574,VALID,0,VALID,86.6859,VALID,357.242,VALID,21.6696,VALID,29,VALID,1.06484,
2009-12-02, 08:22:04,VALID,919.609,VALID,0,VALID,85.6415,VALID,348.861,VALID,21.7265,VALID,33,VALID,1.26563,
2009-12-02, 08:23:04,VALID,919.594,VALID,0,VALID,88.8509,VALID,348.324,VALID,21.8045,VALID,34,VALID,1.775,
2009-12-02, 08:24:04,VALID,919.589,VALID,0,VALID,85.2755,VALID,346.82,VALID,21.8826,VALID,34,VALID,0.976172,
2009-12-02, 08:25:04,VALID,919.615,VALID,0,VALID,86.2132,VALID,316.629,VALID,21.8826,VALID,12,VALID,1.48086,
2009-12-02, 08:26:04,VALID,919.587,VALID,0,VALID,86.2208,VALID,258.611,VALID,21.9411,VALID,12,VALID,1.04844,
2009-12-02, 08:27:04,VALID,919.606,VALID,0,VALID,85.6415,VALID,315.555,VALID,22.0191,VALID,11,VALID,0.750391,
2009-12-02, 08:28:04,VALID,919.606,VALID,0,VALID,85.7482,VALID,336.076,VALID,22.0972,VALID,11,VALID,1.49023,
2009-12-02, 08:29:04,VALID,919.593,VALID,0,VALID,82.4625,VALID,346.283,VALID,22.1379,VALID,22,VALID,1.32891,
2009-12-02, 08:30:04,VALID,919.596,VALID,0,VALID,83.0495,VALID,348.647,VALID,22.0598,VALID,10,VALID,1.45234,
2009-12-02, 08:31:04,VALID,919.566,VALID,0,VALID,85.8244,VALID,344.564,VALID,22.0013,VALID,21,VALID,1.77148,
2009-12-02, 08:32:04,VALID,919.576,VALID,0,VALID,85.771,VALID,348.539,VALID,22.0598,VALID,8,VALID,0.835938,
2009-12-02, 08:33:04,VALID,919.589,VALID,0,VALID,84.0787,VALID,342.2,VALID,22.2354,VALID,345,VALID,1.12422,
2009-12-02, 08:34:04,VALID,919.598,VALID,0,VALID,84.7953,VALID,343.489,VALID,22.3525,VALID,23,VALID,0.963281,
2009-12-02, 08:35:04,VALID,919.637,VALID,0,VALID,80.6786,VALID,344.349,VALID,22.4696,VALID,24,VALID,0.34375,
2009-12-02, 08:36:04,VALID,919.63,VALID,0,VALID,81.1665,VALID,336.506,VALID,22.6257,VALID,23,VALID,0,
2009-12-02, 08:37:04,VALID,919.655,VALID,0,VALID,81.3723,VALID,321.894,VALID,22.8191,VALID,23,VALID,0.781641,
2009-12-02, 08:38:04,VALID,919.664,VALID,0,VALID,81.4333,VALID,307.926,VALID,22.9167,VALID,28,VALID,1.21563,
2009-12-02, 08:39:04,VALID,919.685,VALID,0,VALID,80.8158,VALID,286.438,VALID,23.0143,VALID,28,VALID,0.679688,
2009-12-02, 08:40:04,VALID,919.695,VALID,0,VALID,79.8705,VALID,278.058,VALID,23.0533,VALID,28,VALID,0.882031,
2009-12-02, 08:41:04,VALID,919.693,VALID,0,VALID,80.4499,VALID,268.066,VALID,22.8972,VALID,28,VALID,0.637109,
2009-12-02, 08:42:04,VALID,919.707,VALID,0,VALID,80.5033,VALID,262.049,VALID,22.8582,VALID,28,VALID,0.445703,
2009-12-02, 08:43:04,VALID,919.687,VALID,0,VALID,80.2898,VALID,258.181,VALID,22.8972,VALID,28,VALID,0.572656,
2009-12-02, 08:44:04,VALID,919.693,VALID,0,VALID,80.2898,VALID,255.817,VALID,22.8564,VALID,28,VALID,0.602734,
2009-12-02, 08:45:04,VALID,919.697,VALID,0,VALID,80.549,VALID,253.561,VALID,22.8777,VALID,28,VALID,0.617578,
2009-12-02, 08:46:04,VALID,919.714,VALID,0,VALID,79.8629,VALID,250.338,VALID,22.8564,VALID,28,VALID,0.563281,
2009-12-02, 08:47:04,VALID,919.701,VALID,0,VALID,79.4741,VALID,248.834,VALID,22.8191,VALID,28,VALID,0.794922,
2009-12-02, 08:48:04,VALID,919.717,VALID,0,VALID,80.7015,VALID,247.652,VALID,22.6825,VALID,27,VALID,1.08047,
2009-12-02, 08:49:04,VALID,919.676,VALID,0,VALID,79.8095,VALID,247.544,VALID,22.5833,VALID,289,VALID,1.22109,
2009-12-02, 08:50:04,VALID,919.686,VALID,0,VALID,80.9759,VALID,247.759,VALID,22.5833,VALID,289,VALID,0.628125,
2009-12-02, 08:51:04,VALID,919.716,VALID,0,VALID,80.1678,VALID,251.09,VALID,22.7198,VALID,280,VALID,0.636719,
2009-12-02, 08:52:04,VALID,919.729,VALID,0,VALID,80.1221,VALID,257.107,VALID,22.8582,VALID,260,VALID,0.329688,
2009-12-02, 08:53:04,VALID,919.709,VALID,0,VALID,80.8692,VALID,263.553,VALID,22.954,VALID,260,VALID,0.433594,
2009-12-02, 08:54:04,VALID,919.728,VALID,0,VALID,79.5808,VALID,267.099,VALID,23.1491,VALID,260,VALID,0.100391,
2009-12-02, 08:55:04,VALID,919.734,VALID,0,VALID,79.7181,VALID,263.016,VALID,23.2857,VALID,260,VALID,0.616016,
2009-12-02, 08:56:04,VALID,919.727,VALID,0,VALID,80.8082,VALID,257.751,VALID,23.4028,VALID,260,VALID,0.548437,
2009-12-02, 08:57:04,VALID,919.708,VALID,0,VALID,78.3306,VALID,255.28,VALID,23.5785,VALID,260,VALID,0.855078,
2009-12-02, 08:58:04,VALID,919.699,VALID,0,VALID,77.7436,VALID,255.495,VALID,23.7737,VALID,260,VALID,0.434766,
2009-12-02, 08:59:04,VALID,919.708,VALID,0,VALID,76.4934,VALID,257.536,VALID,23.9689,VALID,260,VALID,0.438281,
2009-12-02, 09:00:04,VALID,919.715,VALID,0,VALID,75.6777,VALID,259.47,VALID,24.2049,VALID,267,VALID,0.783594,
2009-12-02, 09:01:04,VALID,919.69,VALID,0,VALID,75.5023,VALID,260.652,VALID,24.3611,VALID,333,VALID,0.705078,
2009-12-02, 09:02:04,VALID,919.702,VALID,0,VALID,73.4364,VALID,262.264,VALID,24.4197,VALID,199,VALID,0.559375,
2009-12-02, 09:03:04,VALID,919.688,VALID,0,VALID,74.6866,VALID,263.338,VALID,24.535,VALID,89,VALID,1.03242,
2009-12-02, 09:04:04,VALID,919.681,VALID,0,VALID,74.5723,VALID,267.528,VALID,24.7321,VALID,353,VALID,0.835547,
2009-12-02, 09:05:04,VALID,919.687,VALID,0,VALID,75.914,VALID,276.661,VALID,24.7321,VALID,353,VALID,0.808984,
2009-12-02, 09:06:04,VALID,919.707,VALID,0,VALID,74.7323,VALID,289.876,VALID,24.7888,VALID,346,VALID,0.423828,
2009-12-02, 09:07:04,VALID,919.708,VALID,0,VALID,72.1023,VALID,301.802,VALID,24.8297,VALID,337,VALID,0.271875,
2009-12-02, 09:08:04,VALID,919.716,VALID,0,VALID,71.3018,VALID,310.935,VALID,24.9078,VALID,337,VALID,0.28125,
2009-12-02, 09:09:04,VALID,919.732,VALID,0,VALID,72.5292,VALID,319.745,VALID,24.9255,VALID,337,VALID,0.305078,
2009-12-02, 09:10:04,VALID,919.731,VALID,0,VALID,70.9054,VALID,324.687,VALID,25.0426,VALID,337,VALID,0.277344,
2009-12-02, 09:11:04,VALID,919.711,VALID,0,VALID,71.2713,VALID,330.059,VALID,25.1402,VALID,337,VALID,0.355078,
2009-12-02, 09:12:04,VALID,919.685,VALID,0,VALID,71.4314,VALID,366.267,VALID,25.1422,VALID,337,VALID,0.378516,
2009-12-02, 09:13:04,VALID,919.719,VALID,0,VALID,70.8368,VALID,392.697,VALID,25.1012,VALID,322,VALID,0.744531,
2009-12-02, 09:14:04,VALID,919.79,VALID,0,VALID,72.7655,VALID,430.946,VALID,25.0817,VALID,284,VALID,0.579297,
2009-12-02, 09:15:04,VALID,919.768,VALID,0,VALID,72.331,VALID,444.484,VALID,25.1598,VALID,284,VALID,1.05391,
2009-12-02, 09:16:04,VALID,919.795,VALID,0,VALID,71.8126,VALID,441.368,VALID,25.0426,VALID,22,VALID,0.779297,
2009-12-02, 09:17:04,VALID,919.759,VALID,0,VALID,70.5928,VALID,461.352,VALID,24.9645,VALID,331,VALID,0.996484,
2009-12-02, 09:18:04,VALID,919.803,VALID,0,VALID,72.0946,VALID,467.047,VALID,24.8083,VALID,331,VALID,0.522656,
2009-12-02, 09:19:04,VALID,919.793,VALID,0,VALID,71.6296,VALID,458.451,VALID,24.6912,VALID,331,VALID,0.561719,
2009-12-02, 09:20:04,VALID,919.81,VALID,0,VALID,72.5368,VALID,515.825,VALID,24.574,VALID,286,VALID,0.447656,
2009-12-02, 09:21:04,VALID,919.853,VALID,0,VALID,74.3283,VALID,555.578,VALID,24.5545,VALID,286,VALID,0.589453,
2009-12-02, 09:22:04,VALID,919.858,VALID,0,VALID,73.2763,VALID,584.587,VALID,24.6912,VALID,286,VALID,0.504687,
2009-12-02, 09:23:04,VALID,919.841,VALID,0,VALID,71.9574,VALID,630.25,VALID,24.7497,VALID,289,VALID,0.408594,
2009-12-02, 09:24:04,VALID,919.833,VALID,0,VALID,72.1633,VALID,638.953,VALID,24.7088,VALID,12,VALID,0.539453,
2009-12-02, 09:25:04,VALID,919.867,VALID,0,VALID,72.5139,VALID,621.547,VALID,24.8083,VALID,12,VALID,0.399609,
2009-12-02, 09:26:04,VALID,919.886,VALID,0,VALID,72.979,VALID,587.381,VALID,24.984,VALID,12,VALID,0.405859,
2009-12-02, 09:27:04,VALID,919.874,VALID,0,VALID,71.1341,VALID,577.174,VALID,25.1207,VALID,12,VALID,0.498828,
2009-12-02, 09:28:04,VALID,919.846,VALID,0,VALID,72.2319,VALID,567.934,VALID,25.1988,VALID,3,VALID,0.916016,
2009-12-02, 09:29:04,VALID,919.867,VALID,0,VALID,69.8534,VALID,567.504,VALID,25.3355,VALID,44,VALID,0.386328,
2009-12-02, 09:30:04,VALID,919.829,VALID,0,VALID,70.8596,VALID,473.278,VALID,25.3922,VALID,346,VALID,1.04961,
2009-12-02, 09:31:04,VALID,919.886,VALID,0,VALID,71.805,VALID,423.64,VALID,25.195,VALID,5,VALID,1.09805,
2009-12-02, 09:32:04,VALID,919.839,VALID,0,VALID,72.8494,VALID,579.538,VALID,25.0602,VALID,33,VALID,0.776172,
2009-12-02, 09:33:04,VALID,919.844,VALID,0,VALID,71.2103,VALID,708.682,VALID,25.1598,VALID,41,VALID,0.642187,
2009-12-02, 09:34:04,VALID,919.825,VALID,0,VALID,71.3628,VALID,649.697,VALID,25.1559,VALID,19,VALID,1.80977,
2009-12-02, 09:35:04,VALID,919.8,VALID,0,VALID,72.209,VALID,632.721,VALID,25.1012,VALID,37,VALID,0.826172,
2009-12-02, 09:36:04,VALID,919.805,VALID,0,VALID,73.4669,VALID,608.976,VALID,25.0993,VALID,37,VALID,0.838672,
2009-12-02, 09:37:04,VALID,919.783,VALID,0,VALID,71.6525,VALID,573.736,VALID,25.2555,VALID,37,VALID,0.546484,
2009-12-02, 09:38:04,VALID,919.763,VALID,0,VALID,70.6614,VALID,555.041,VALID,25.3922,VALID,37,VALID,0.344531,
2009-12-02, 09:39:04,VALID,919.78,VALID,0,VALID,70.7148,VALID,531.082,VALID,25.5308,VALID,37,VALID,0.418359,
2009-12-02, 09:40:04,VALID,919.761,VALID,0,VALID,70.3184,VALID,557.512,VALID,25.5679,VALID,37,VALID,0.595703,
2009-12-02, 09:41:04,VALID,919.776,VALID,0,VALID,71.2789,VALID,581.149,VALID,25.5874,VALID,21,VALID,1.47422,
2009-12-02, 09:42:04,VALID,919.762,VALID,0,VALID,69.335,VALID,527.321,VALID,25.6245,VALID,30,VALID,0.459766,
2009-12-02, 09:43:04,VALID,919.747,VALID,0,VALID,69.4646,VALID,487.998,VALID,25.646,VALID,30,VALID,1.0457,
2009-12-02, 09:44:04,VALID,919.77,VALID,0,VALID,71.4162,VALID,508.089,VALID,25.5308,VALID,34,VALID,0.644141,
2009-12-02, 09:45:04,VALID,919.796,VALID,0,VALID,73.0781,VALID,509.164,VALID,25.4917,VALID,46,VALID,1.05313,
2009-12-02, 09:46:04,VALID,919.774,VALID,0,VALID,70.0592,VALID,550.743,VALID,25.4527,VALID,3,VALID,1.02266,
2009-12-02, 09:47:04,VALID,919.797,VALID,0,VALID,70.7682,VALID,551.066,VALID,25.1598,VALID,19,VALID,1.71445,
2009-12-02, 09:48:04,VALID,919.79,VALID,0,VALID,71.1493,VALID,426.541,VALID,25.0231,VALID,1,VALID,1.22734,
2009-12-02, 09:49:04,VALID,919.76,VALID,0,VALID,73.444,VALID,488.965,VALID,24.9059,VALID,6,VALID,1.89063,
2009-12-02, 09:50:04,VALID,919.772,VALID,0,VALID,72.8875,VALID,385.499,VALID,24.8083,VALID,1,VALID,1.15391,
2009-12-02, 09:51:04,VALID,919.778,VALID,0,VALID,72.5292,VALID,432.021,VALID,24.7693,VALID,3,VALID,1.37539,
2009-12-02, 09:52:04,VALID,919.766,VALID,0,VALID,73.0323,VALID,360.465,VALID,24.8083,VALID,34,VALID,1.57734,
2009-12-02, 09:53:04,VALID,919.744,VALID,0,VALID,73.9624,VALID,381.094,VALID,24.7888,VALID,15,VALID,1.6707,
2009-12-02, 09:54:04,VALID,919.73,VALID,0,VALID,73.5965,VALID,382.92,VALID,24.7888,VALID,35,VALID,1.52383,
2009-12-02, 09:55:04,VALID,919.734,VALID,0,VALID,73.3525,VALID,504.759,VALID,24.8669,VALID,349,VALID,0.766016,
2009-12-02, 09:56:04,VALID,919.717,VALID,0,VALID,72.4987,VALID,508.197,VALID,24.8474,VALID,27,VALID,1.23203,
2009-12-02, 09:57:04,VALID,919.708,VALID,0,VALID,74.5875,VALID,535.057,VALID,24.7693,VALID,67,VALID,0.701172,
2009-12-02, 09:58:04,VALID,919.718,VALID,0,VALID,74.6485,VALID,707.607,VALID,24.7693,VALID,75,VALID,0.693359,
2009-12-02, 09:59:04,VALID,919.702,VALID,0,VALID,76.2418,VALID,506.8,VALID,24.8492,VALID,78,VALID,1.24766,
2009-12-02, 10:00:04,VALID,919.671,VALID,0,VALID,74.8315,VALID,484.882,VALID,24.8826,VALID,35,VALID,1.68086,
2009-12-02, 10:01:04,VALID,919.676,VALID,0,VALID,74.9306,VALID,432.773,VALID,24.9626,VALID,15,VALID,1.45781,
2009-12-02, 10:02:04,VALID,919.696,VALID,0,VALID,74.2063,VALID,403.012,VALID,25.0407,VALID,91,VALID,0.441406,
2009-12-02, 10:03:04,VALID,919.694,VALID,0,VALID,74.0081,VALID,418.806,VALID,25.1579,VALID,21,VALID,1.87539,
2009-12-02, 10:04:04,VALID,919.692,VALID,0,VALID,74.4274,VALID,434.814,VALID,25.1579,VALID,12,VALID,1.54609,
2009-12-02, 10:05:04,VALID,919.67,VALID,0,VALID,72.2929,VALID,453.402,VALID,25.0602,VALID,53,VALID,0.635156,
2009-12-02, 10:06:04,VALID,919.67,VALID,0,VALID,73.4592,VALID,438.145,VALID,24.9821,VALID,37,VALID,1.98477,
2009-12-02, 10:07:04,VALID,919.707,VALID,0,VALID,74.5113,VALID,452.112,VALID,24.8259,VALID,67,VALID,1.44844,
2009-12-02, 10:08:04,VALID,919.655,VALID,0,VALID,74.2902,VALID,461.245,VALID,24.7479,VALID,24,VALID,1.52305,
2009-12-02, 10:09:04,VALID,919.661,VALID,0,VALID,75.1516,VALID,447.278,VALID,24.6307,VALID,33,VALID,1.24297,
2009-12-02, 10:10:04,VALID,919.681,VALID,0,VALID,74.8315,VALID,446.418,VALID,24.5722,VALID,28,VALID,0.881641,
2009-12-02, 10:11:04,VALID,919.678,VALID,0,VALID,76.5543,VALID,431.269,VALID,24.4941,VALID,28,VALID,0.691016,
2009-12-02, 10:12:04,VALID,919.683,VALID,0,VALID,76.1808,VALID,422.029,VALID,24.3769,VALID,22,VALID,1.9418,
2009-12-02, 10:13:04,VALID,919.717,VALID,0,VALID,80.3813,VALID,394.739,VALID,24.1817,VALID,354,VALID,1.22148,
2009-12-02, 10:14:04,VALID,919.713,VALID,0,VALID,81.1284,VALID,370.242,VALID,24.0469,VALID,12,VALID,0.644141,
2009-12-02, 10:15:04,VALID,919.684,VALID,0,VALID,80.0764,VALID,359.283,VALID,23.9866,VALID,12,VALID,0.475391,
2009-12-02, 10:16:04,VALID,919.724,VALID,0,VALID,79.5961,VALID,351.655,VALID,23.928,VALID,12,VALID,0.302344,
2009-12-02, 10:17:04,VALID,919.696,VALID,0,VALID,81.0293,VALID,351.762,VALID,23.9103,VALID,12,VALID,0.332031,
2009-12-02, 10:18:04,VALID,919.724,VALID,0,VALID,78.5669,VALID,352.085,VALID,23.6743,VALID,320,VALID,0.980859,
2009-12-02, 10:19:04,VALID,919.721,VALID,0,VALID,81.5248,VALID,347.465,VALID,23.4206,VALID,50,VALID,1.36445,
2009-12-02, 10:20:04,VALID,919.741,VALID,0,VALID,82.5006,VALID,346.39,VALID,23.3035,VALID,29,VALID,1.12383,
2009-12-02, 10:21:04,VALID,919.771,VALID,0,VALID,85.8092,VALID,351.977,VALID,23.284,VALID,29,VALID,0.457812,
2009-12-02, 10:22:04,VALID,919.749,VALID,0,VALID,82.1728,VALID,349.291,VALID,23.3053,VALID,29,VALID,0.567969,
2009-12-02, 10:23:04,VALID,919.764,VALID,0,VALID,79.2607,VALID,353.374,VALID,23.2645,VALID,23,VALID,1.61602,
2009-12-02, 10:24:04,VALID,919.752,VALID,0,VALID,83.9567,VALID,351.44,VALID,23.1296,VALID,28,VALID,0.871875,
2009-12-02, 10:25:04,VALID,919.765,VALID,0,VALID,84.2921,VALID,353.159,VALID,23.0321,VALID,28,VALID,0.326562,
2009-12-02, 10:26:04,VALID,919.747,VALID,0,VALID,82.2567,VALID,350.043,VALID,23.0321,VALID,28,VALID,0.497656,
2009-12-02, 10:27:04,VALID,919.798,VALID,0,VALID,85.9693,VALID,343.167,VALID,23.0516,VALID,52,VALID,0.789063,
2009-12-02, 10:28:04,VALID,919.778,VALID,0,VALID,86.6706,VALID,331.778,VALID,23.1101,VALID,52,VALID,0.335156,
2009-12-02, 10:29:04,VALID,919.75,VALID,0,VALID,82.8055,VALID,322.109,VALID,23.0693,VALID,27,VALID,1.89727,
2009-12-02, 10:30:04,VALID,919.776,VALID,0,VALID,83.019,VALID,312.117,VALID,23.0125,VALID,250,VALID,0.417188,
2009-12-02, 10:31:04,VALID,919.787,VALID,0,VALID,85.0163,VALID,302.125,VALID,22.993,VALID,250,VALID,0.802734,
2009-12-02, 10:32:04,VALID,919.783,VALID,0,VALID,84.0482,VALID,290.628,VALID,22.9913,VALID,250,VALID,0.560938,
2009-12-02, 10:33:04,VALID,919.805,VALID,0,VALID,81.38,VALID,270.644,VALID,22.9735,VALID,250,VALID,0.833203,
2009-12-02, 10:34:04,VALID,919.771,VALID,0,VALID,83.4688,VALID,260.008,VALID,22.8369,VALID,326,VALID,0.797266,
2009-12-02, 10:35:04,VALID,919.779,VALID,0,VALID,84.9706,VALID,248.941,VALID,22.7181,VALID,239,VALID,0.2125,